Regional Weather Roundup
Issued by NWS Kansas City/Pleasant Hill, MO

Home | Current Version | Previous Version | Text Only | Print | Product List | Glossary On
Versions: 1 2 3 4 5 6 7 8 9 10 11 12 13 14 15 16 17 18 19 20 21 22 23 24 25 26 27
000
ASUS43 KEAX 261610
RWREAX

WEATHER ROUNDUP FOR EASTERN KANSAS AND NORTHWEST MISSOURI
NATIONAL WEATHER SERVICE KANSAS CITY/PLEASANT HILL MO
1100 AM CDT THU MAY 26 2016

KSZ040-057-103>105-MOZ028-029-037-043-261700-
...KANSAS CITY METROPOLITAN AREA...

CITY           SKY/WX    TMP DP  RH WIND       PRES   REMARKS
K.C. INTL      LGT RAIN  67  65  93 S12       29.88F
K.C. DOWNTOWN  TSTM      71  66  84 NW10      29.91R
LEES SUMMIT    CLOUDY    74  62  66 E9        29.90F
OLATHE - IXD   PTSUNNY   78  71  79 SE13      29.88F
OLATHE - OJC   CLOUDY    77  69  76 SE10      29.89S
LAWRENCE       CLOUDY    73  69  87 SE10      29.86F

$$

MOZ001>008-011>017-020>025-030>033-038>040-044>046-053-054-261700-
...NORTHERN AND CENTRAL MISSOURI...

CITY           SKY/WX    TMP DP  RH WIND       PRES   REMARKS
ST. JOSEPH     LGT RAIN  69  64  84 SE5       29.87F
MOSBY          LGT RAIN  68  63  83 E16       29.85F
WARRENSBURG    SUNNY     79  64  61 S7        29.90S
WHITEMAN AFB   MOSUNNY   78  69  74 SW8       29.89S
CLINTON        SUNNY     73  66  78 S7        29.91F
SEDALIA        SUNNY     80  66  62 SW9       29.92F
WARSAW         NOT AVBL
CHILLICOTHE      N/A     74  64  71 VRB3      29.91R
KIRKSVILLE     PTSUNNY   77  65  66 VRB6      29.92F

$$

MOZ041-047>049-056>058-063>065-088>090-097-261700-
...EASTERN AND SOUTHERN MISSOURI...

CITY           SKY/WX    TMP DP  RH WIND       PRES   REMARKS
ST. LOUIS INTL PTSUNNY   75  66  73 S9        29.97S
SPIRIT OF STL  PTSUNNY   73  67  81 S9G21     29.95F
COLUMBIA       CLOUDY    76  67  73 VRB5      29.90F
JEFFERSON CITY CLOUDY    76  69  79 SE8       29.90F
ROLLA          CLOUDY    69  67  93 SE17      29.97F
SPRINGFIELD    CLOUDY    79  67  66 SE14      29.95F
BRANSON        CLOUDY    79  73  83 CALM      30.00S
JOPLIN         MOSUNNY   83  73  72 S14       29.91F
WEST PLAINS    PTSUNNY   80  72  76 SE8       30.01S

$$

IAZ060-094-KSZ022-034>040-054-083-096-NEZ052-066-093-261700-
...KANSAS...SOUTHEAST NEBRASKA AND IOWA...

CITY           SKY/WX    TMP DP  RH WIND       PRES   REMARKS
TOPEKA         CLOUDY    73  69  87 E10       29.85F
MANHATTAN      CLOUDY    76  70  82 E6        29.80F
EMPORIA        CLOUDY    81  73  76 SE15      29.82S
CHANUTE        CLOUDY    81  73  76 SE17      29.86F
WICHITA        CLOUDY    82  73  74 S14       29.79S HAZE
OMAHA          MOSUNNY   78  61  55 VRB3      29.86F
LINCOLN        CLOUDY    76  62  62 E6        29.86F
FALLS CITY     CLOUDY    77  67  71 SE10      29.84F
LAMONI         CLOUDY    76  65  68 SE7       29.90S
DES MOINES     MOSUNNY   74  61  63 SE8       29.89S

$$





USA.gov is the U.S. government's official web portal to all federal, state and local government web resources and services.